Time,TemperatureF,DewpointF,PressureIn,WindDirection,WindDirectionDegrees,WindSpeedMPH,WindSpeedGustMPH,Humidity,HourlyPrecipIn,Conditions,Clouds,dailyrainin,SoftwareType,DateUTC
2013-02-20 00:00:00,34.9,19.9,29.66,NW,313,11.0,11.0,54,0.00,,,0.00,Wunderground v.1.15,2013-02-20 08:00:00,
2013-02-20 00:05:00,34.8,19.8,29.66,NW,324,12.0,14.0,54,0.00,,,0.00,Wunderground v.1.15,2013-02-20 08:05:00,
2013-02-20 00:11:00,34.8,19.4,29.66,NW,318,12.0,20.0,53,0.00,,,0.00,Wunderground v.1.15,2013-02-20 08:11:00,
2013-02-20 00:16:00,34.8,19.8,29.67,NW,309,13.0,20.0,54,0.00,,,0.00,Wunderground v.1.15,2013-02-20 08:16:00,
2013-02-20 00:22:00,34.7,19.3,29.67,NW,325,14.0,16.0,53,0.00,,,0.00,Wunderground v.1.15,2013-02-20 08:22:00,
2013-02-20 00:28:00,34.7,19.3,29.67,NNW,327,14.0,17.0,53,0.00,,,0.00,Wunderground v.1.15,2013-02-20 08:28:00,
2013-02-20 00:33:00,34.7,19.3,29.68,NW,326,14.0,14.0,53,0.00,,,0.00,Wunderground v.1.15,2013-02-20 08:33:00,
2013-02-20 00:38:00,34.6,19.2,29.68,NW,315,13.0,18.0,53,0.00,,,0.00,Wunderground v.1.15,2013-02-20 08:38:00,
2013-02-20 00:44:00,34.5,19.1,29.68,NW,311,13.0,16.0,53,0.00,,,0.00,Wunderground v.1.15,2013-02-20 08:44:00,
2013-02-20 00:50:00,34.4,19.5,29.69,NW,323,12.0,12.0,54,0.00,,,0.00,Wunderground v.1.15,2013-02-20 08:50:00,
2013-02-20 00:56:00,34.3,19.4,29.69,NW,318,12.0,15.0,54,0.00,,,0.00,Wunderground v.1.15,2013-02-20 08:56:00,
2013-02-20 01:02:00,34.3,19.4,29.69,NNW,328,12.0,15.0,54,0.00,,,0.00,Wunderground v.1.15,2013-02-20 09:02:00,
2013-02-20 01:07:00,34.2,19.3,29.70,NNW,328,12.0,15.0,54,0.00,,,0.00,Wunderground v.1.15,2013-02-20 09:07:00,
2013-02-20 01:13:00,34.1,19.2,29.70,NNW,327,11.0,17.0,54,0.00,,,0.00,Wunderground v.1.15,2013-02-20 09:13:00,
2013-02-20 01:19:00,33.9,19.0,29.70,NW,318,11.0,17.0,54,0.00,,,0.00,Wunderground v.1.15,2013-02-20 09:19:00,
2013-02-20 01:25:00,33.9,19.4,29.70,NW,308,10.0,13.0,55,0.00,,,0.00,Wunderground v.1.15,2013-02-20 09:25:00,
2013-02-20 01:30:00,33.9,19.4,29.71,NW,315,9.0,9.0,55,0.00,,,0.00,Wunderground v.1.15,2013-02-20 09:30:00,
2013-02-20 01:36:00,33.7,19.2,29.71,NW,325,9.0,12.0,55,0.00,,,0.00,Wunderground v.1.15,2013-02-20 09:36:00,
2013-02-20 01:42:00,33.2,20.0,29.71,NNW,327,10.0,13.0,58,0.00,,,0.00,Wunderground v.1.15,2013-02-20 09:42:00,
2013-02-20 01:48:00,33.0,20.2,29.72,NW,316,12.0,16.0,59,0.00,,,0.00,Wunderground v.1.15,2013-02-20 09:48:00,
2013-02-20 01:53:00,32.9,20.1,29.72,WNW,300,11.0,12.0,59,0.00,,,0.00,Wunderground v.1.15,2013-02-20 09:53:00,
2013-02-20 01:59:00,32.8,20.0,29.72,NW,315,4.0,12.0,59,0.00,,,0.00,Wunderground v.1.15,2013-02-20 09:59:00,
2013-02-20 02:05:00,32.5,19.7,29.72,NW,318,2.0,14.0,59,0.00,,,0.00,Wunderground v.1.15,2013-02-20 10:05:00,
2013-02-20 02:10:00,32.5,20.1,29.72,NW,318,8.0,11.0,60,0.00,,,0.00,Wunderground v.1.15,2013-02-20 10:10:00,
2013-02-20 02:16:00,32.4,20.0,29.72,NW,318,11.0,14.0,60,0.00,,,0.00,Wunderground v.1.15,2013-02-20 10:16:00,
2013-02-20 02:22:00,32.4,20.4,29.73,WNW,295,12.0,17.0,61,0.00,,,0.00,Wunderground v.1.15,2013-02-20 10:22:00,
2013-02-20 02:28:00,32.4,20.4,29.73,NNW,332,13.0,18.0,61,0.00,,,0.00,Wunderground v.1.15,2013-02-20 10:28:00,
2013-02-20 02:34:00,32.5,20.1,29.74,WNW,298,14.0,17.0,60,0.00,,,0.00,Wunderground v.1.15,2013-02-20 10:34:00,
2013-02-20 02:40:00,32.3,20.0,29.74,NNW,328,13.0,13.0,60,0.00,,,0.00,Wunderground v.1.15,2013-02-20 10:40:00,
2013-02-20 02:45:00,32.0,20.1,29.74,NW,318,11.0,13.0,61,0.00,,,0.00,Wunderground v.1.15,2013-02-20 10:45:00,
2013-02-20 02:51:00,31.7,20.9,29.74,WNW,291,9.0,10.0,64,0.00,,,0.00,Wunderground v.1.15,2013-02-20 10:51:00,
2013-02-20 02:56:00,31.5,20.7,29.74,NW,317,8.0,10.0,64,0.00,,,0.00,Wunderground v.1.15,2013-02-20 10:56:00,
2013-02-20 03:01:00,31.3,20.9,29.75,NNW,335,7.0,9.0,65,0.00,,,0.00,Wunderground v.1.15,2013-02-20 11:01:00,
2013-02-20 03:07:00,31.2,20.8,29.75,WSW,248,7.0,9.0,65,0.00,,,0.00,Wunderground v.1.15,2013-02-20 11:07:00,
2013-02-20 03:12:00,31.2,20.8,29.75,NW,309,6.0,7.0,65,0.00,,,0.00,Wunderground v.1.15,2013-02-20 11:12:00,
2013-02-20 03:17:00,31.1,20.7,29.75,NNW,330,4.0,13.0,65,0.00,,,0.00,Wunderground v.1.15,2013-02-20 11:17:00,
2013-02-20 03:23:00,31.2,20.8,29.75,NW,316,3.0,3.0,65,0.00,,,0.00,Wunderground v.1.15,2013-02-20 11:23:00,
2013-02-20 03:28:00,31.0,20.6,29.76,NNW,331,1.0,3.0,65,0.00,,,0.00,Wunderground v.1.15,2013-02-20 11:28:00,
2013-02-20 03:34:00,30.9,20.5,29.76,WNW,300,2.0,9.0,65,0.00,,,0.00,Wunderground v.1.15,2013-02-20 11:34:00,
2013-02-20 03:40:00,30.8,20.8,29.76,NNW,333,7.0,7.0,66,0.00,,,0.00,Wunderground v.1.15,2013-02-20 11:40:00,
2013-02-20 03:46:00,30.8,20.8,29.76,WNW,297,7.0,9.0,66,0.00,,,0.00,Wunderground v.1.15,2013-02-20 11:46:00,
2013-02-20 03:52:00,30.8,20.8,29.77,NNW,336,7.0,13.0,66,0.00,,,0.00,Wunderground v.1.15,2013-02-20 11:52:00,
2013-02-20 03:57:00,30.5,20.5,29.77,NNW,347,7.0,13.0,66,0.00,,,0.00,Wunderground v.1.15,2013-02-20 11:57:00,
2013-02-20 04:03:00,30.6,20.6,29.77,NW,304,7.0,8.0,66,0.00,,,0.00,Wunderground v.1.15,2013-02-20 12:03:00,
2013-02-20 04:09:00,30.4,20.4,29.77,NNW,329,6.0,8.0,66,0.00,,,0.00,Wunderground v.1.15,2013-02-20 12:09:00,
2013-02-20 04:14:00,29.7,19.4,29.77,NW,316,6.0,7.0,65,0.00,,,0.00,Wunderground v.1.15,2013-02-20 12:14:00,
2013-02-20 04:19:00,29.7,19.4,29.78,NW,316,0.0,7.0,65,0.00,,,0.00,Wunderground v.1.15,2013-02-20 12:19:00,
2013-02-20 04:25:00,-999.9,-99.9,29.78,North,32767,-999.0,0.0,255,-99.99,,,0.00,Wunderground v.1.15,2013-02-20 12:25:00,
2013-02-20 04:31:00,-999.9,-99.9,29.78,North,32767,-999.0,0.0,255,-99.99,,,0.00,Wunderground v.1.15,2013-02-20 12:31:00,
2013-02-20 04:37:00,-999.9,-99.9,29.78,North,32767,-999.0,0.0,255,-99.99,,,0.00,Wunderground v.1.15,2013-02-20 12:37:00,
2013-02-20 04:43:00,-999.9,-99.9,29.79,North,32767,-999.0,0.0,255,-99.99,,,0.00,Wunderground v.1.15,2013-02-20 12:43:00,
2013-02-20 04:48:00,-999.9,-99.9,29.79,North,32767,-999.0,0.0,255,-99.99,,,0.00,Wunderground v.1.15,2013-02-20 12:48:00,
2013-02-20 04:53:00,-999.9,-99.9,29.79,North,32767,-999.0,0.0,255,-99.99,,,0.00,Wunderground v.1.15,2013-02-20 12:53:00,
2013-02-20 04:59:00,-999.9,-99.9,29.79,North,32767,-999.0,0.0,255,-99.99,,,0.00,Wunderground v.1.15,2013-02-20 12:59:00,
2013-02-20 05:05:00,-999.9,-99.9,29.79,North,32767,-999.0,0.0,255,-99.99,,,0.00,Wunderground v.1.15,2013-02-20 13:05:00,
2013-02-20 05:11:00,-999.9,-99.9,29.80,North,32767,-999.0,0.0,255,-99.99,,,0.00,Wunderground v.1.15,2013-02-20 13:11:00,
2013-02-20 05:16:00,-999.9,-99.9,29.80,North,32767,-999.0,0.0,255,-99.99,,,0.00,Wunderground v.1.15,2013-02-20 13:16:00,
2013-02-20 05:22:00,-999.9,-99.9,29.80,North,32767,-999.0,0.0,255,-99.99,,,0.00,Wunderground v.1.15,2013-02-20 13:22:00,
2013-02-20 05:27:00,-999.9,-99.9,29.80,North,32767,-999.0,0.0,255,-99.99,,,0.00,Wunderground v.1.15,2013-02-20 13:27:00,
2013-02-20 05:32:00,-999.9,-99.9,29.80,North,32767,-999.0,0.0,255,-99.99,,,0.00,Wunderground v.1.15,2013-02-20 13:32:00,
2013-02-20 05:38:00,-999.9,-99.9,29.80,North,32767,-999.0,0.0,255,-99.99,,,0.00,Wunderground v.1.15,2013-02-20 13:38:00,
2013-02-20 05:44:00,-999.9,-99.9,29.81,North,32767,-999.0,0.0,255,-99.99,,,0.00,Wunderground v.1.15,2013-02-20 13:44:00,
2013-02-20 05:50:00,-999.9,-99.9,29.81,North,32767,-999.0,0.0,255,-99.99,,,0.00,Wunderground v.1.15,2013-02-20 13:50:00,
2013-02-20 05:56:00,-999.9,-99.9,29.81,North,32767,-999.0,0.0,255,-99.99,,,0.00,Wunderground v.1.15,2013-02-20 13:56:00,
2013-02-20 06:01:00,-999.9,-99.9,29.81,North,32767,-999.0,0.0,255,-99.99,,,0.00,Wunderground v.1.15,2013-02-20 14:01:00,
2013-02-20 06:06:00,-999.9,-99.9,29.81,North,32767,-999.0,0.0,255,-99.99,,,0.00,Wunderground v.1.15,2013-02-20 14:06:00,
2013-02-20 06:12:00,-999.9,-99.9,29.82,North,32767,-999.0,0.0,255,-99.99,,,0.00,Wunderground v.1.15,2013-02-20 14:12:00,
2013-02-20 06:17:00,-999.9,-99.9,29.82,North,32767,-999.0,0.0,255,-99.99,,,0.00,Wunderground v.1.15,2013-02-20 14:17:00,
2013-02-20 06:23:00,-999.9,-99.9,29.82,North,32767,-999.0,0.0,255,-99.99,,,0.00,Wunderground v.1.15,2013-02-20 14:23:00,
2013-02-20 06:28:00,-999.9,-99.9,29.82,North,32767,-999.0,0.0,255,-99.99,,,0.00,Wunderground v.1.15,2013-02-20 14:28:00,
2013-02-20 06:34:00,-999.9,-99.9,29.82,North,32767,-999.0,0.0,255,-99.99,,,0.00,Wunderground v.1.15,2013-02-20 14:34:00,
2013-02-20 06:40:00,-999.9,-99.9,29.82,North,32767,-999.0,0.0,255,-99.99,,,0.00,Wunderground v.1.15,2013-02-20 14:40:00,
2013-02-20 06:46:00,-999.9,-99.9,29.83,North,32767,-999.0,0.0,255,-99.99,,,0.00,Wunderground v.1.15,2013-02-20 14:46:00,
2013-02-20 06:51:00,-999.9,-99.9,29.83,North,32767,-999.0,0.0,255,-99.99,,,0.00,Wunderground v.1.15,2013-02-20 14:51:00,
2013-02-20 06:57:00,-999.9,-99.9,29.83,North,32767,-999.0,0.0,255,-99.99,,,0.00,Wunderground v.1.15,2013-02-20 14:57:00,
2013-02-20 07:02:00,-999.9,-99.9,29.83,North,32767,-999.0,0.0,255,-99.99,,,0.00,Wunderground v.1.15,2013-02-20 15:02:00,
2013-02-20 07:08:00,-999.9,-99.9,29.84,North,32767,-999.0,0.0,255,-99.99,,,0.00,Wunderground v.1.15,2013-02-20 15:08:00,
2013-02-20 07:13:00,-999.9,-99.9,29.84,North,32767,-999.0,0.0,255,-99.99,,,0.00,Wunderground v.1.15,2013-02-20 15:13:00,
2013-02-20 07:19:00,-999.9,-99.9,29.84,North,32767,-999.0,0.0,255,-99.99,,,0.00,Wunderground v.1.15,2013-02-20 15:19:00,
2013-02-20 07:24:00,-999.9,-99.9,29.85,North,32767,-999.0,0.0,255,-99.99,,,0.00,Wunderground v.1.15,2013-02-20 15:24:00,
2013-02-20 07:30:00,-999.9,-99.9,29.85,North,32767,-999.0,0.0,255,-99.99,,,0.00,Wunderground v.1.15,2013-02-20 15:30:00,
2013-02-20 07:35:00,29.6,20.0,29.85,WNW,300,5.0,5.0,67,0.00,,,0.00,Wunderground v.1.15,2013-02-20 15:35:00,
2013-02-20 07:41:00,30.0,20.0,29.86,NW,307,3.0,3.0,66,0.00,,,0.00,Wunderground v.1.15,2013-02-20 15:41:00,
2013-02-20 07:47:00,30.5,20.1,29.87,WSW,238,3.0,8.0,65,0.00,,,0.00,Wunderground v.1.15,2013-02-20 15:47:00,
2013-02-20 07:52:00,30.9,20.1,29.87,WSW,249,3.0,7.0,64,0.00,,,0.00,Wunderground v.1.15,2013-02-20 15:52:00,
2013-02-20 07:58:00,31.4,20.2,29.88,WSW,254,2.0,8.0,63,0.00,,,0.00,Wunderground v.1.15,2013-02-20 15:58:00,
2013-02-20 08:03:00,31.8,20.3,29.88,NW,325,4.0,8.0,62,0.00,,,0.00,Wunderground v.1.15,2013-02-20 16:03:00,
2013-02-20 08:09:00,32.2,20.2,29.89,WNW,290,5.0,8.0,61,0.00,,,0.00,Wunderground v.1.15,2013-02-20 16:09:00,
2013-02-20 08:15:00,32.8,19.6,29.89,NW,312,5.0,13.0,58,0.00,,,0.00,Wunderground v.1.15,2013-02-20 16:15:00,
2013-02-20 08:21:00,33.6,20.4,29.89,WNW,294,4.0,4.0,58,0.00,,,0.00,Wunderground v.1.15,2013-02-20 16:21:00,
2013-02-20 08:26:00,34.4,18.6,29.90,NW,321,5.0,17.0,52,0.00,,,0.00,Wunderground v.1.15,2013-02-20 16:26:00,
2013-02-20 08:32:00,34.8,18.0,29.90,WNW,295,11.0,11.0,50,0.00,,,0.00,Wunderground v.1.15,2013-02-20 16:32:00,
2013-02-20 08:38:00,35.2,17.9,29.90,WNW,300,12.0,16.0,49,0.00,,,0.00,Wunderground v.1.15,2013-02-20 16:38:00,
2013-02-20 08:44:00,35.5,17.2,29.90,NNW,335,11.0,16.0,47,0.00,,,0.00,Wunderground v.1.15,2013-02-20 16:44:00,
2013-02-20 08:49:00,35.4,17.1,29.91,NNW,329,13.0,16.0,47,0.00,,,0.00,Wunderground v.1.15,2013-02-20 16:49:00,
2013-02-20 08:54:00,35.6,16.8,29.91,NNW,328,12.0,13.0,46,0.00,,,0.00,Wunderground v.1.15,2013-02-20 16:54:00,
2013-02-20 09:00:00,36.0,16.7,29.91,NW,319,12.0,12.0,45,0.00,,,0.00,Wunderground v.1.15,2013-02-20 17:00:00,
2013-02-20 09:06:00,36.1,16.3,29.92,NW,321,13.0,13.0,44,0.00,,,0.00,Wunderground v.1.15,2013-02-20 17:06:00,
2013-02-20 09:12:00,36.7,16.8,29.92,NNW,333,11.0,12.0,44,0.00,,,0.00,Wunderground v.1.15,2013-02-20 17:12:00,
2013-02-20 09:19:00,37.1,16.6,29.92,NNW,328,8.0,14.0,43,0.00,,,0.00,Wunderground v.1.15,2013-02-20 17:19:00,
2013-02-20 09:24:00,37.2,16.2,29.92,NW,311,4.0,8.0,42,0.00,,,0.00,Wunderground v.1.15,2013-02-20 17:24:00,
2013-02-20 09:30:00,37.3,16.3,29.92,NNW,332,0.0,0.0,42,0.00,,,0.00,Wunderground v.1.15,2013-02-20 17:30:00,
2013-02-20 09:35:00,37.6,16.0,29.93,NW,319,0.0,0.0,41,0.00,,,0.00,Wunderground v.1.15,2013-02-20 17:35:00,
2013-02-20 09:40:00,37.4,15.8,29.93,WNW,297,0.0,0.0,41,0.00,,,0.00,Wunderground v.1.15,2013-02-20 17:40:00,
2013-02-20 09:46:00,37.1,16.1,29.93,NW,319,1.0,10.0,42,0.00,,,0.00,Wunderground v.1.15,2013-02-20 17:46:00,
2013-02-20 09:52:00,37.6,16.0,29.93,NW,326,1.0,1.0,41,0.00,,,0.00,Wunderground v.1.15,2013-02-20 17:52:00,
2013-02-20 09:58:00,37.7,15.5,29.93,NNW,336,0.0,1.0,40,0.00,,,0.00,Wunderground v.1.15,2013-02-20 17:58:00,
2013-02-20 10:04:00,38.1,15.9,29.93,NW,320,0.0,0.0,40,0.00,,,0.00,Wunderground v.1.15,2013-02-20 18:04:00,
2013-02-20 10:10:00,38.4,15.6,29.93,West,259,0.0,0.0,39,0.00,,,0.00,Wunderground v.1.15,2013-02-20 18:10:00,
2013-02-20 10:16:00,38.7,14.6,29.94,NW,324,0.0,0.0,37,0.00,,,0.00,Wunderground v.1.15,2013-02-20 18:16:00,
2013-02-20 10:21:00,38.8,14.7,29.94,NW,319,0.0,0.0,37,0.00,,,0.00,Wunderground v.1.15,2013-02-20 18:21:00,
2013-02-20 10:27:00,39.1,15.0,29.94,NNW,327,0.0,2.0,37,0.00,,,0.00,Wunderground v.1.15,2013-02-20 18:27:00,
2013-02-20 10:33:00,39.3,13.9,29.94,NNW,332,0.0,9.0,35,0.00,,,0.00,Wunderground v.1.15,2013-02-20 18:33:00,
2013-02-20 10:39:00,39.0,10.1,29.95,NNW,329,1.0,9.0,30,0.00,,,0.00,Wunderground v.1.15,2013-02-20 18:39:00,
2013-02-20 10:45:00,39.3,10.4,29.95,NNE,27,0.0,7.0,30,0.00,,,0.00,Wunderground v.1.15,2013-02-20 18:45:00,
2013-02-20 10:51:00,39.8,12.3,29.95,NNW,338,0.0,0.0,32,0.00,,,0.00,Wunderground v.1.15,2013-02-20 18:51:00,
2013-02-20 10:57:00,40.0,9.5,29.95,North,2,0.0,0.0,28,0.00,,,0.00,Wunderground v.1.15,2013-02-20 18:57:00,
2013-02-20 11:03:00,39.9,10.9,29.95,NW,318,0.0,0.0,30,0.00,,,0.00,Wunderground v.1.15,2013-02-20 19:03:00,
2013-02-20 11:09:00,40.1,7.9,29.95,North,3,0.0,0.0,26,0.00,,,0.00,Wunderground v.1.15,2013-02-20 19:09:00,
2013-02-20 11:15:00,40.1,9.6,29.94,NW,321,0.0,0.0,28,0.00,,,0.00,Wunderground v.1.15,2013-02-20 19:15:00,
2013-02-20 11:21:00,40.0,8.7,29.94,WNW,295,0.0,0.0,27,0.00,,,0.00,Wunderground v.1.15,2013-02-20 19:21:00,
2013-02-20 11:26:00,40.6,10.0,29.94,NNW,343,0.0,0.0,28,0.00,,,0.00,Wunderground v.1.15,2013-02-20 19:26:00,
2013-02-20 11:32:00,40.6,11.5,29.94,NNW,336,0.0,0.0,30,0.00,,,0.00,Wunderground v.1.15,2013-02-20 19:32:00,
2013-02-20 11:38:00,41.1,12.7,29.94,NNW,335,0.0,0.0,31,0.00,,,0.00,Wunderground v.1.15,2013-02-20 19:38:00,
2013-02-20 11:44:00,41.1,12.0,29.93,North,6,0.0,0.0,30,0.00,,,0.00,Wunderground v.1.15,2013-02-20 19:44:00,
2013-02-20 11:50:00,41.8,14.8,29.94,WNW,302,0.0,0.0,33,0.00,,,0.00,Wunderground v.1.15,2013-02-20 19:50:00,
2013-02-20 11:56:00,40.7,13.1,29.93,NNW,340,0.0,0.0,32,0.00,,,0.00,Wunderground v.1.15,2013-02-20 19:56:00,
2013-02-20 12:02:00,41.1,14.1,29.93,WSW,237,0.0,0.0,33,0.00,,,0.00,Wunderground v.1.15,2013-02-20 20:02:00,
2013-02-20 12:08:00,41.3,12.1,29.93,NNW,342,0.0,0.0,30,0.00,,,0.00,Wunderground v.1.15,2013-02-20 20:08:00,
2013-02-20 12:14:00,41.2,12.8,29.93,West,279,0.0,0.0,31,0.00,,,0.00,Wunderground v.1.15,2013-02-20 20:14:00,
2013-02-20 12:20:00,41.2,12.8,29.92,NW,321,0.0,0.0,31,0.00,,,0.00,Wunderground v.1.15,2013-02-20 20:20:00,
2013-02-20 12:26:00,41.9,11.9,29.92,NNE,17,0.0,0.0,29,0.00,,,0.00,Wunderground v.1.15,2013-02-20 20:26:00,
2013-02-20 12:32:00,41.9,6.7,29.92,NNW,342,0.0,0.0,23,0.00,,,0.00,Wunderground v.1.15,2013-02-20 20:32:00,
2013-02-20 12:38:00,42.2,9.7,29.92,WNW,302,0.0,0.0,26,0.00,,,0.00,Wunderground v.1.15,2013-02-20 20:38:00,
2013-02-20 12:44:00,42.3,9.8,29.92,North,360,0.0,0.0,26,0.00,,,0.00,Wunderground v.1.15,2013-02-20 20:44:00,
2013-02-20 12:49:00,42.5,10.0,29.92,NNW,338,0.0,0.0,26,0.00,,,0.00,Wunderground v.1.15,2013-02-20 20:49:00,
2013-02-20 12:55:00,42.5,10.8,29.92,NNW,329,0.0,0.0,27,0.00,,,0.00,Wunderground v.1.15,2013-02-20 20:55:00,
2013-02-20 13:00:00,42.6,10.9,29.92,NNW,332,0.0,0.0,27,0.00,,,0.00,Wunderground v.1.15,2013-02-20 21:00:00,
2013-02-20 13:06:00,42.4,11.5,29.92,NNW,328,0.0,0.0,28,0.00,,,0.00,Wunderground v.1.15,2013-02-20 21:06:00,
2013-02-20 13:12:00,42.3,11.5,29.92,NW,319,0.0,0.0,28,0.00,,,0.00,Wunderground v.1.15,2013-02-20 21:12:00,
2013-02-20 13:18:00,42.9,12.0,29.92,West,264,0.0,0.0,28,0.00,,,0.00,Wunderground v.1.15,2013-02-20 21:18:00,
2013-02-20 13:24:00,43.3,11.5,29.92,West,274,0.0,0.0,27,0.00,,,0.00,Wunderground v.1.15,2013-02-20 21:24:00,
2013-02-20 13:30:00,43.2,10.6,29.92,NW,320,0.0,0.0,26,0.00,,,0.00,Wunderground v.1.15,2013-02-20 21:30:00,
2013-02-20 13:35:00,43.5,10.8,29.92,NW,321,0.0,0.0,26,0.00,,,0.00,Wunderground v.1.15,2013-02-20 21:35:00,
2013-02-20 13:40:00,43.3,9.8,29.92,North,6,0.0,0.0,25,0.00,,,0.00,Wunderground v.1.15,2013-02-20 21:40:00,
2013-02-20 13:46:00,42.9,11.2,29.92,NW,305,0.0,0.0,27,0.00,,,0.00,Wunderground v.1.15,2013-02-20 21:46:00,
2013-02-20 13:51:00,43.0,12.1,29.91,NW,326,0.0,0.0,28,0.00,,,0.00,Wunderground v.1.15,2013-02-20 21:51:00,
2013-02-20 13:56:00,43.5,12.5,29.91,WNW,294,0.0,0.0,28,0.00,,,0.00,Wunderground v.1.15,2013-02-20 21:56:00,
2013-02-20 14:02:00,42.8,12.7,29.92,NW,307,0.0,0.0,29,0.00,,,0.00,Wunderground v.1.15,2013-02-20 22:02:00,
2013-02-20 14:07:00,42.8,12.7,29.91,West,274,0.0,0.0,29,0.00,,,0.00,Wunderground v.1.15,2013-02-20 22:07:00,
2013-02-20 14:13:00,43.2,11.4,29.92,NW,322,0.0,0.0,27,0.00,,,0.00,Wunderground v.1.15,2013-02-20 22:13:00,
2013-02-20 14:18:00,42.7,11.8,29.91,WNW,297,0.0,0.0,28,0.00,,,0.00,Wunderground v.1.15,2013-02-20 22:18:00,
2013-02-20 14:24:00,43.2,11.4,29.91,WNW,301,0.0,0.0,27,0.00,,,0.00,Wunderground v.1.15,2013-02-20 22:24:00,
2013-02-20 14:30:00,43.1,10.5,29.91,NW,311,0.0,0.0,26,0.00,,,0.00,Wunderground v.1.15,2013-02-20 22:30:00,
2013-02-20 14:35:00,42.8,9.3,29.91,NW,304,0.0,0.0,25,0.00,,,0.00,Wunderground v.1.15,2013-02-20 22:35:00,
2013-02-20 14:41:00,43.2,9.7,29.91,West,270,0.0,0.0,25,0.00,,,0.00,Wunderground v.1.15,2013-02-20 22:41:00,
2013-02-20 14:46:00,43.3,9.8,29.91,WNW,288,0.0,0.0,25,0.00,,,0.00,Wunderground v.1.15,2013-02-20 22:46:00,
2013-02-20 14:51:00,43.1,9.6,29.91,NNW,332,0.0,0.0,25,0.00,,,0.00,Wunderground v.1.15,2013-02-20 22:51:00,
2013-02-20 14:57:00,42.9,8.5,29.91,NW,319,0.0,0.0,24,0.00,,,0.00,Wunderground v.1.15,2013-02-20 22:57:00,
2013-02-20 15:03:00,42.9,6.6,29.91,NNW,330,0.0,0.0,22,0.00,,,0.00,Wunderground v.1.15,2013-02-20 23:03:00,
2013-02-20 15:08:00,43.2,5.8,29.91,WNW,298,0.0,0.0,21,0.00,,,0.00,Wunderground v.1.15,2013-02-20 23:08:00,
2013-02-20 15:13:00,43.3,4.8,29.91,WNW,295,0.0,0.0,20,0.00,,,0.00,Wunderground v.1.15,2013-02-20 23:13:00,
2013-02-20 15:19:00,43.3,8.9,29.92,West,264,0.0,0.0,24,0.00,,,0.00,Wunderground v.1.15,2013-02-20 23:19:00,
2013-02-20 15:24:00,43.2,9.7,29.91,West,266,0.0,0.0,25,0.00,,,0.00,Wunderground v.1.15,2013-02-20 23:24:00,
2013-02-20 15:30:00,43.4,10.7,29.91,NW,319,0.0,0.0,26,0.00,,,0.00,Wunderground v.1.15,2013-02-20 23:30:00,
2013-02-20 15:36:00,43.5,10.8,29.91,WNW,288,0.0,0.0,26,0.00,,,0.00,Wunderground v.1.15,2013-02-20 23:36:00,
2013-02-20 15:41:00,43.5,10.8,29.91,WNW,285,0.0,0.0,26,0.00,,,0.00,Wunderground v.1.15,2013-02-20 23:41:00,
2013-02-20 15:46:00,43.4,9.9,29.91,West,270,0.0,0.0,25,0.00,,,0.00,Wunderground v.1.15,2013-02-20 23:46:00,
2013-02-20 15:52:00,43.4,9.9,29.91,SSW,213,0.0,0.0,25,0.00,,,0.00,Wunderground v.1.15,2013-02-20 23:52:00,
2013-02-20 15:58:00,43.1,9.6,29.92,West,264,1.0,8.0,25,0.00,,,0.00,Wunderground v.1.15,2013-02-20 23:58:00,
2013-02-20 16:04:00,43.0,9.5,29.92,WNW,291,3.0,4.0,25,0.00,,,0.00,Wunderground v.1.15,2013-02-21 00:04:00,
2013-02-20 16:10:00,42.6,9.2,29.92,NW,311,3.0,9.0,25,0.00,,,0.00,Wunderground v.1.15,2013-02-21 00:10:00,
2013-02-20 16:15:00,42.4,9.0,29.92,NW,317,2.0,2.0,25,0.00,,,0.00,Wunderground v.1.15,2013-02-21 00:15:00,
2013-02-20 16:21:00,41.9,8.6,29.92,WNW,295,0.0,0.0,25,0.00,,,0.00,Wunderground v.1.15,2013-02-21 00:21:00,
2013-02-20 16:27:00,41.8,8.5,29.93,WNW,288,2.0,4.0,25,0.00,,,0.00,Wunderground v.1.15,2013-02-21 00:27:00,
2013-02-20 16:33:00,41.9,8.6,29.93,WNW,295,3.0,7.0,25,0.00,,,0.00,Wunderground v.1.15,2013-02-21 00:33:00,
2013-02-20 16:39:00,42.0,8.7,29.93,WNW,302,2.0,7.0,25,0.00,,,0.00,Wunderground v.1.15,2013-02-21 00:39:00,
2013-02-20 16:44:00,41.9,7.7,29.93,NW,321,3.0,8.0,24,0.00,,,0.00,Wunderground v.1.15,2013-02-21 00:44:00,
2013-02-20 16:50:00,42.0,7.8,29.93,WNW,291,3.0,8.0,24,0.00,,,0.00,Wunderground v.1.15,2013-02-21 00:50:00,
2013-02-20 16:56:00,41.8,8.5,29.93,WNW,297,4.0,8.0,25,0.00,,,0.00,Wunderground v.1.15,2013-02-21 00:56:00,
2013-02-20 17:01:00,41.7,8.4,29.93,WNW,299,5.0,5.0,25,0.00,,,0.00,Wunderground v.1.15,2013-02-21 01:01:00,
2013-02-20 17:07:00,41.5,8.2,29.93,WNW,299,5.0,9.0,25,0.00,,,0.00,Wunderground v.1.15,2013-02-21 01:07:00,
2013-02-20 17:12:00,41.3,8.1,29.93,WNW,290,5.0,8.0,25,0.00,,,0.00,Wunderground v.1.15,2013-02-21 01:12:00,
2013-02-20 17:18:00,41.4,9.0,29.93,WNW,286,7.0,11.0,26,0.00,,,0.00,Wunderground v.1.15,2013-02-21 01:18:00,
2013-02-20 17:23:00,41.1,8.8,29.93,NW,319,8.0,9.0,26,0.00,,,0.00,Wunderground v.1.15,2013-02-21 01:23:00,
2013-02-20 17:29:00,40.8,6.7,29.93,NW,304,8.0,11.0,24,0.00,,,0.00,Wunderground v.1.15,2013-02-21 01:29:00,
2013-02-20 17:35:00,40.3,6.3,29.93,WNW,300,6.0,8.0,24,0.00,,,0.00,Wunderground v.1.15,2013-02-21 01:35:00,
2013-02-20 17:40:00,39.7,6.7,29.94,WNW,299,3.0,3.0,25,0.00,,,0.00,Wunderground v.1.15,2013-02-21 01:40:00,
2013-02-20 17:46:00,39.2,7.1,29.94,WNW,295,3.0,7.0,26,0.00,,,0.00,Wunderground v.1.15,2013-02-21 01:46:00,
2013-02-20 17:51:00,38.8,8.4,29.94,WNW,300,3.0,4.0,28,0.00,,,0.00,Wunderground v.1.15,2013-02-21 01:51:00,
2013-02-20 17:57:00,38.2,8.7,29.94,WNW,290,3.0,6.0,29,0.00,,,0.00,Wunderground v.1.15,2013-02-21 01:57:00,
2013-02-20 18:03:00,37.8,8.3,29.94,WNW,297,3.0,4.0,29,0.00,,,0.00,Wunderground v.1.15,2013-02-21 02:03:00,
2013-02-20 18:09:00,37.4,8.0,29.94,SW,226,3.0,5.0,29,0.00,,,0.00,Wunderground v.1.15,2013-02-21 02:09:00,
2013-02-20 18:15:00,37.0,8.4,29.94,NNW,327,3.0,5.0,30,0.00,,,0.00,Wunderground v.1.15,2013-02-21 02:15:00,
2013-02-20 18:21:00,36.7,8.9,29.95,WNW,283,4.0,4.0,31,0.00,,,0.00,Wunderground v.1.15,2013-02-21 02:21:00,
2013-02-20 18:27:00,36.2,8.4,29.95,WNW,291,3.0,4.0,31,0.00,,,0.00,Wunderground v.1.15,2013-02-21 02:27:00,
2013-02-20 18:32:00,35.8,8.8,29.95,NW,304,2.0,3.0,32,0.00,,,0.00,Wunderground v.1.15,2013-02-21 02:32:00,
2013-02-20 18:38:00,35.4,9.1,29.95,West,260,2.0,3.0,33,0.00,,,0.00,Wunderground v.1.15,2013-02-21 02:38:00,
2013-02-20 18:43:00,34.9,10.0,29.95,West,269,2.0,4.0,35,0.00,,,0.00,Wunderground v.1.15,2013-02-21 02:43:00,
2013-02-20 18:49:00,34.6,10.3,29.95,NW,311,2.0,4.0,36,0.00,,,0.00,Wunderground v.1.15,2013-02-21 02:49:00,
2013-02-20 18:55:00,34.1,10.5,29.95,WNW,284,2.0,3.0,37,0.00,,,0.00,Wunderground v.1.15,2013-02-21 02:55:00,
2013-02-20 19:01:00,33.7,10.7,29.95,WNW,292,2.0,5.0,38,0.00,,,0.00,Wunderground v.1.15,2013-02-21 03:01:00,
2013-02-20 19:06:00,33.5,10.6,29.96,West,270,3.0,5.0,38,0.00,,,0.00,Wunderground v.1.15,2013-02-21 03:06:00,
2013-02-20 19:12:00,33.2,10.9,29.96,WNW,297,2.0,4.0,39,0.00,,,0.00,Wunderground v.1.15,2013-02-21 03:12:00,
2013-02-20 19:17:00,33.1,11.4,29.96,NW,305,3.0,4.0,40,0.00,,,0.00,Wunderground v.1.15,2013-02-21 03:17:00,
2013-02-20 19:23:00,33.0,11.3,29.96,NW,321,3.0,4.0,40,0.00,,,0.00,Wunderground v.1.15,2013-02-21 03:23:00,
2013-02-20 19:29:00,32.5,10.3,29.96,NNW,333,2.0,4.0,39,0.00,,,0.00,Wunderground v.1.15,2013-02-21 03:29:00,
2013-02-20 19:34:00,31.4,9.8,29.96,NNW,346,3.0,5.0,40,0.00,,,0.00,Wunderground v.1.15,2013-02-21 03:34:00,
2013-02-20 19:40:00,31.2,10.7,29.96,NNW,342,5.0,7.0,42,0.00,,,0.00,Wunderground v.1.15,2013-02-21 03:40:00,
2013-02-20 19:46:00,31.9,10.8,29.97,NNW,332,5.0,7.0,41,0.00,,,0.00,Wunderground v.1.15,2013-02-21 03:46:00,
2013-02-20 19:52:00,32.6,10.3,29.97,NNW,328,5.0,5.0,39,0.00,,,0.00,Wunderground v.1.15,2013-02-21 03:52:00,
2013-02-20 19:58:00,33.4,10.5,29.97,WNW,300,4.0,5.0,38,0.00,,,0.00,Wunderground v.1.15,2013-02-21 03:58:00,
2013-02-20 20:03:00,33.5,10.6,29.97,NW,309,4.0,4.0,38,0.00,,,0.00,Wunderground v.1.15,2013-02-21 04:03:00,
2013-02-20 20:09:00,33.1,10.2,29.97,NW,307,3.0,4.0,38,0.00,,,0.00,Wunderground v.1.15,2013-02-21 04:09:00,
2013-02-20 20:14:00,32.8,9.9,29.97,NW,309,3.0,4.0,38,0.00,,,0.00,Wunderground v.1.15,2013-02-21 04:14:00,
2013-02-20 20:20:00,32.5,9.7,29.98,NW,307,2.0,2.0,38,0.00,,,0.00,Wunderground v.1.15,2013-02-21 04:20:00,
2013-02-20 20:26:00,31.7,9.5,29.98,West,264,1.0,2.0,39,0.00,,,0.00,Wunderground v.1.15,2013-02-21 04:26:00,
2013-02-20 20:31:00,30.6,9.1,29.98,WSW,245,1.0,1.0,40,0.00,,,0.00,Wunderground v.1.15,2013-02-21 04:31:00,
2013-02-20 20:37:00,29.9,9.0,29.98,SSE,162,0.0,2.0,41,0.00,,,0.00,Wunderground v.1.15,2013-02-21 04:37:00,
2013-02-20 20:43:00,29.5,9.2,29.98,SSW,207,1.0,3.0,42,0.00,,,0.00,Wunderground v.1.15,2013-02-21 04:43:00,
2013-02-20 20:50:00,29.3,9.5,29.99,SW,216,2.0,4.0,43,0.00,,,0.00,Wunderground v.1.15,2013-02-21 04:50:00,
2013-02-20 20:55:00,29.8,10.0,29.99,SW,223,2.0,4.0,43,0.00,,,0.00,Wunderground v.1.15,2013-02-21 04:55:00,
2013-02-20 21:00:00,30.2,9.8,29.98,SW,214,2.0,2.0,42,0.00,,,0.00,Wunderground v.1.15,2013-02-21 05:00:00,
2013-02-20 21:02:00,30.2,10.4,29.98,SW,214,2.0,2.0,43,0.00,,,0.00,Wunderground v.1.15,2013-02-21 05:02:00,
2013-02-20 21:03:00,30.3,10.4,29.98,SW,214,2.0,2.0,43,0.00,,,0.00,Wunderground v.1.15,2013-02-21 05:03:00,
2013-02-20 21:04:00,30.4,10.5,29.98,SW,214,1.0,2.0,43,0.00,,,0.00,Wunderground v.1.15,2013-02-21 05:04:00,
2013-02-20 21:09:00,31.1,10.6,29.98,SW,224,1.0,2.0,42,0.00,,,0.00,Wunderground v.1.15,2013-02-21 05:09:00,
2013-02-20 21:15:00,31.4,10.4,29.99,SW,231,1.0,1.0,41,0.00,,,0.00,Wunderground v.1.15,2013-02-21 05:15:00,
2013-02-20 21:21:00,31.3,10.8,29.99,WSW,256,0.0,1.0,42,0.00,,,0.00,Wunderground v.1.15,2013-02-21 05:21:00,
2013-02-20 21:26:00,31.6,11.1,29.99,WSW,257,0.0,1.0,42,0.00,,,0.00,Wunderground v.1.15,2013-02-21 05:26:00,
2013-02-20 21:32:00,32.0,10.9,29.99,West,267,1.0,1.0,41,0.00,,,0.00,Wunderground v.1.15,2013-02-21 05:32:00,
2013-02-20 21:37:00,32.7,11.6,29.99,WNW,285,1.0,2.0,41,0.00,,,0.00,Wunderground v.1.15,2013-02-21 05:37:00,
2013-02-20 21:43:00,33.1,11.9,29.99,NW,317,1.0,3.0,41,0.00,,,0.00,Wunderground v.1.15,2013-02-21 05:43:00,
2013-02-20 21:49:00,33.5,11.7,30.00,WNW,294,2.0,4.0,40,0.00,,,0.00,Wunderground v.1.15,2013-02-21 05:49:00,
2013-02-20 21:55:00,33.7,11.3,29.99,NW,309,2.0,3.0,39,0.00,,,0.00,Wunderground v.1.15,2013-02-21 05:55:00,
2013-02-20 22:00:00,32.0,9.8,29.99,West,278,2.0,2.0,39,0.00,,,0.00,Wunderground v.1.15,2013-02-21 06:00:00,
2013-02-20 22:06:00,30.1,9.7,30.00,WNW,283,1.0,2.0,42,0.00,,,0.00,Wunderground v.1.15,2013-02-21 06:06:00,
2013-02-20 22:11:00,29.3,10.1,30.00,West,280,1.0,2.0,44,0.00,,,0.00,Wunderground v.1.15,2013-02-21 06:11:00,
2013-02-20 22:17:00,29.3,10.1,30.00,West,279,1.0,2.0,44,0.00,,,0.00,Wunderground v.1.15,2013-02-21 06:17:00,
2013-02-20 22:22:00,29.3,10.1,30.00,WNW,291,1.0,2.0,44,0.00,,,0.00,Wunderground v.1.15,2013-02-21 06:22:00,
2013-02-20 22:28:00,29.3,10.1,30.00,WNW,285,2.0,2.0,44,0.00,,,0.00,Wunderground v.1.15,2013-02-21 06:28:00,
2013-02-20 22:34:00,28.9,10.2,30.00,NW,311,2.0,4.0,45,0.00,,,0.00,Wunderground v.1.15,2013-02-21 06:34:00,
2013-02-20 22:40:00,29.4,10.1,30.00,NW,316,3.0,3.0,44,0.00,,,0.00,Wunderground v.1.15,2013-02-21 06:40:00,
2013-02-20 22:45:00,28.2,9.5,30.00,West,269,2.0,3.0,45,0.00,,,0.00,Wunderground v.1.15,2013-02-21 06:45:00,
2013-02-20 22:50:00,27.6,9.0,30.00,West,269,0.0,0.0,45,0.00,,,0.00,Wunderground v.1.15,2013-02-21 06:50:00,
2013-02-20 22:56:00,27.0,8.9,30.00,WSW,250,0.0,1.0,46,0.00,,,0.00,Wunderground v.1.15,2013-02-21 06:56:00,
2013-02-20 23:01:00,26.7,9.1,29.99,SSW,196,0.0,1.0,47,0.00,,,0.00,Wunderground v.1.15,2013-02-21 07:01:00,
2013-02-20 23:07:00,26.7,9.1,29.99,SSE,149,1.0,2.0,47,0.00,,,0.00,Wunderground v.1.15,2013-02-21 07:07:00,
2013-02-20 23:13:00,27.0,9.9,29.99,SSE,158,1.0,2.0,48,0.00,,,0.00,Wunderground v.1.15,2013-02-21 07:13:00,
2013-02-20 23:18:00,27.0,9.4,29.99,SSW,194,1.0,2.0,47,0.00,,,0.00,Wunderground v.1.15,2013-02-21 07:18:00,
2013-02-20 23:24:00,27.7,10.5,29.99,SSW,195,1.0,2.0,48,0.00,,,0.00,Wunderground v.1.15,2013-02-21 07:24:00,
2013-02-20 23:29:00,28.0,10.3,29.98,SW,225,1.0,2.0,47,0.00,,,0.00,Wunderground v.1.15,2013-02-21 07:29:00,
2013-02-20 23:35:00,28.6,10.9,29.98,SW,225,1.0,1.0,47,0.00,,,0.00,Wunderground v.1.15,2013-02-21 07:35:00,
2013-02-20 23:41:00,29.1,10.9,29.98,SW,225,0.0,0.0,46,0.00,,,0.00,Wunderground v.1.15,2013-02-21 07:41:00,
2013-02-20 23:47:00,29.5,10.7,29.98,SW,225,0.0,0.0,45,0.00,,,0.00,Wunderground v.1.15,2013-02-21 07:47:00,
2013-02-20 23:52:00,29.8,10.5,29.98,WSW,241,0.0,0.0,44,0.00,,,0.00,Wunderground v.1.15,2013-02-21 07:52:00,
2013-02-20 23:58:00,28.8,10.1,29.98,SW,235,0.0,2.0,45,0.00,,,0.00,Wunderground v.1.15,2013-02-21 07:58:00,